Погода в Милославском

Россия / Рязанская область     53°34′45″N   39°27′01″E
темп.,
°C
ветер,
м/с
пор.,
м/с
влажн.,
%
обл.,
%
осадки,
мм/ч
давл.,
гПа
погр.,
м
4 декабря, сб
сб400:00+5юз71393100 2.6 1001950
03:000зсз61196100 5.6 1004690
06:000з611865 0.1 1006594
09:00−2зюз6138127 0.1 1008635
12:00−1з7128083 0.0 1010794
15:00−2з7107295 0.0 1011928
18:00−2зюз611755 0.0 1012686
21:00−2з4978100 0.0 1013494
5 декабря, вс
вс500:00−2юз36835 0.0 1014289
03:00−2юз36885 0.0 1015231
06:00−2юз248898 0.0 1015140
09:00−2ююз3585100 0.0 1016214
12:00−1юз3478100 0.0 1016305
15:00−1ююз348487 0.1 1017264
18:00−2ююз23845 0.0 101858
21:00−2ююз23805 0.0 101880
6 декабря, пн
пн600:00−3ююз2476100 0.0 102091
03:00−3ююз2473100 0.0 102087
06:00−3ю247486 0.0 102095
09:00−2ююв3672100 0.0 1021192
12:00−1ююв3862100 0.0 1021351
15:00−1ююв3663100 0.0 1021309
18:00−2юв486992 0.0 1022283
21:00−2ююв5107398 0.0 1021334
7 декабря, вт
вт700:00−2юв51081100 0.0 1020354
03:00−2ююв61287100 0.0 1019449
06:00−1юв71497100 1.5 1016492
09:000ююв71796100 3.8 1014617
12:00+1ю61398100 0.7 1013437
15:00+1ю51198100 0.7 1013335
18:00+1ююв41099100 1.3 1012243
21:00+2ю41199100 1.9 1011286
8 декабря, ср
ср800:00+3ю51499100 3.3 1011336
03:00+2ю41094100 6.6 1011226
06:00+2ю4996100 0.3 1011197
09:00+1ю2496100 0.3 101273
12:00+2юв2297100 0.0 101362
15:00+2всв3398100 0.0 101273
18:00+1св3698100 0.0 1013131
21:00+1всв3698100 0.0 1013152